This is the latest recevied weather packets stored in our database for station/object DG1ABU-11. If no packets are shown the sender has not sent any weather packets the latest 10 day(s).
| Time | Temp. | Humidity | Pressure | Rain* | Wind** | Luminosity | Snow |
|---|---|---|---|---|---|---|---|
| 1777445216 | 9.44° C | 40% | 1029.8 hPa | - | - | - | - |
| 1777444316 | 8.89° C | 41% | 1029.7 hPa | - | - | - | - |
| 1777443416 | 8.33° C | 42% | 1029.4 hPa | - | - | - | - |
| 1777442516 | 7.78° C | 42% | 1029.3 hPa | - | - | - | - |
| 1777441616 | 7.22° C | 44% | 1029.2 hPa | - | - | - | - |
| 1777440716 | 6.67° C | 44% | 1029.1 hPa | - | - | - | - |
| 1777439816 | 6.67° C | 44% | 1028.9 hPa | - | - | - | - |
| 1777438916 | 6.67° C | 43% | 1028.6 hPa | - | - | - | - |
| 1777438016 | 6.67° C | 43% | 1028.6 hPa | - | - | - | - |
| 1777437116 | 6.67° C | 42% | 1028.4 hPa | - | - | - | - |
| 1777436216 | 6.67° C | 42% | 1028.3 hPa | - | - | - | - |
| 1777435316 | 7.22° C | 42% | 1028.3 hPa | - | - | - | - |
| 1777434416 | 7.22° C | 43% | 1028.3 hPa | - | - | - | - |
| 1777433516 | 7.22° C | 42% | 1028.3 hPa | - | - | - | - |
| 1777432616 | 7.22° C | 42% | 1028.2 hPa | - | - | - | - |
| 1777431716 | 7.22° C | 41% | 1028.2 hPa | - | - | - | - |
| 1777430816 | 7.78° C | 40% | 1028.1 hPa | - | - | - | - |
| 1777429915 | 7.78° C | 39% | 1028 hPa | - | - | - | - |
| 1777429015 | 7.78° C | 39% | 1028.2 hPa | - | - | - | - |
| 1777428115 | 8.33° C | 39% | 1028.2 hPa | - | - | - | - |
| 1777427215 | 8.33° C | 39% | 1028.1 hPa | - | - | - | - |
| 1777426315 | 8.33° C | 39% | 1027.9 hPa | - | - | - | - |
| 1777425415 | 8.89° C | 38% | 1027.9 hPa | - | - | - | - |
| 1777424515 | 8.89° C | 38% | 1027.8 hPa | - | - | - | - |
| 1777423615 | 9.44° C | 37% | 1027.8 hPa | - | - | - | - |
* Rain since midnight (hover to see other rain measurements)
** Current wind speed in m/s (hover to see current wind gust speed)